GFSSE_sfc_dewp_162.txt.gz
Dewpoint
68 71 74 73 73 74 74 75 74 73 74 75 75 75 75 74 74 74 76 76 76 76 75 76 77 77 76 75 76 75 76 76 76 75 75 75 75 76 75 74 74 71 75
67 70 74 73 73 74 74 74 73 73 75 75 75 75 75 74 74 74 75 76 75 75 75 76 76 76 76 75 76 75 75 76 76 75 75 75 75 75 74 74 75 73 74
66 70 71 74 73 74 74 74 73 72 73 73 74 75 74 75 74 75 75 75 75 75 75 75 76 75 75 75 75 75 75 75 76 75 75 69 70 73 73 74 75 74 74
65 68 69 75 74 73 73 72 72 73 74 73 75 75 74 74 75 75 75 75 75 75 75 75 75 76 75 74 73 73 73 71 72 72 72 65 69 73 72 72 72 71 71
66 68 70 74 74 72 73 72 70 71 74 74 74 74 74 74 75 75 74 74 75 76 76 74 74 74 74 72 71 70 71 72 74 73 69 68 70 73 73 73 72 72 72
65 66 72 73 72 72 73 72 74 74 74 74 74 74 74 74 75 75 75 75 75 75 75 75 75 74 73 72 71 71 72 74 75 70 69 71 70 71 71 71 71 71 70
63 65 68 72 72 72 73 72 73 73 73 74 74 74 74 74 74 75 75 75 75 75 75 75 74 74 74 73 71 71 72 74 73 68 67 68 70 73 71 72 72 71 71
61 65 66 71 71 72 73 73 73 73 74 74 74 74 74 75 75 75 74 74 74 74 74 75 75 75 74 73 71 72 73 73 68 68 69 68 73 73 72 72 72 72 72
60 63 63 65 69 70 73 74 73 73 73 73 73 74 74 74 75 75 74 74 74 74 74 74 75 75 74 74 73 72 72 74 70 70 67 70 74 72 71 71 72 71 72
61 62 65 67 69 72 71 73 73 73 72 71 71 71 72 74 75 74 76 75 74 74 73 73 74 75 75 75 74 73 73 73 68 66 67 71 74 72 71 71 72 73 73
61 67 69 69 71 71 71 71 72 72 71 70 71 72 75 74 73 73 75 75 74 74 73 72 72 73 74 75 76 76 74 70 65 65 66 72 73 72 72 74 74 74 75
64 68 69 70 69 70 67 72 72 72 72 71 71 73 76 73 72 71 74 74 74 73 73 73 74 74 73 69 71 76 72 67 66 66 66 72 71 71 71 72 74 76 75
64 66 71 69 67 70 70 71 72 73 73 73 73 74 73 70 70 69 72 71 72 73 70 71 71 71 69 70 71 67 68 65 65 65 68 71 72 71 71 71 73 75 76
61 65 69 70 68 71 71 71 71 72 71 71 73 74 72 69 70 69 70 70 71 71 71 71 69 71 70 71 72 66 70 68 63 65 69 73 73 71 69 71 73 74 74
62 64 64 70 71 70 69 69 69 71 72 70 72 73 71 68 69 68 70 70 70 70 70 68 71 69 69 69 68 67 62 65 65 65 71 75 74 74 72 73 72 73 74
62 64 67 68 71 67 67 69 70 71 71 68 68 69 71 71 72 72 69 70 71 69 69 72 74 70 70 67 67 69 66 66 67 69 68 72 75 75 74 72 72 73 75
60 65 65 66 67 70 67 71 72 69 65 66 69 73 70 73 71 73 72 74 72 73 74 72 71 71 68 65 69 68 68 66 68 68 69 69 72 76 74 73 73 75 76
60 66 65 60 64 68 70 72 72 69 66 69 69 72 66 66 73 71 72 70 71 73 72 72 71 69 67 67 68 68 68 67 67 69 69 69 71 70 75 75 75 77 76
64 66 66 66 66 67 73 72 70 70 71 69 67 70 67 65 73 72 68 66 74 72 72 70 70 70 69 67 64 67 66 67 68 63 67 69 70 74 74 75 76 76 75
65 67 68 68 70 73 74 76 73 71 69 72 72 72 74 74 75 71 65 66 75 71 72 70 70 71 71 70 58 60 65 66 67 67 65 65 69 71 72 72 76 73 76
64 67 69 70 72 71 71 70 69 71 72 73 71 73 75 74 74 76 73 75 76 73 71 72 72 72 71 70 69 67 67 66 64 66 65 66 67 68 71 75 76 74 75
64 67 71 71 73 72 70 72 72 74 70 72 72 74 73 72 75 74 77 76 77 76 75 76 76 71 71 72 69 69 65 65 63 66 65 65 66 67 70 72 74 74 75
64 67 70 72 73 72 72 73 74 76 70 74 72 71 72 73 73 76 76 77 77 76 74 75 76 74 71 67 69 70 66 59 62 66 64 69 66 68 72 71 73 74 74
65 66 70 72 74 72 74 72 73 70 68 70 72 74 72 74 74 74 75 76 77 76 75 75 72 74 62 64 69 67 70 66 60 63 69 68 65 68 69 70 71 73 74
66 70 70 72 73 74 73 75 71 71 70 71 70 71 74 76 75 73 76 76 77 76 76 76 76 76 74 73 70 69 68 68 71 62 63 66 69 70 69 68 69 72 72
70 69 70 73 73 74 73 73 74 72 72 71 73 71 70 71 72 76 74 76 77 77 76 75 77 76 78 76 76 74 71 70 66 64 61 66 67 68 69 70 69 73 74

GFSSE_sfc_dewp_165.txt.gz
Dewpoint
70 72 75 74 75 75 75 74 74 74 75 75 75 75 74 74 75 76 76 76 76 76 76 76 76 76 75 75 76 75 75 75 75 76 75 75 74 75 75 75 74 72 74
70 72 75 74 74 74 76 75 75 76 75 75 75 75 74 74 74 75 76 76 75 76 75 76 76 76 76 75 75 75 76 76 76 76 75 75 75 75 74 74 74 73 74
70 72 73 75 75 74 74 75 74 74 73 75 75 75 75 74 73 75 75 76 75 75 74 76 75 75 75 75 75 75 75 75 76 76 73 70 70 73 74 75 74 74 74
69 70 72 75 75 74 73 74 74 74 73 75 75 75 75 75 75 75 75 75 75 75 75 75 75 75 75 74 74 74 73 73 73 72 69 69 70 72 73 73 72 72 73
68 70 71 74 74 73 73 71 73 74 75 75 75 75 75 74 75 75 75 75 75 75 75 75 74 73 73 72 71 71 72 72 73 72 69 70 72 73 73 73 72 73 73
68 70 73 74 73 73 73 73 74 75 75 75 75 75 75 74 74 74 74 75 75 75 75 75 74 73 71 71 71 71 72 73 74 69 70 71 69 71 71 71 71 71 71
67 70 71 75 73 73 72 74 74 74 75 74 75 75 75 75 75 75 75 75 75 75 75 74 73 73 72 72 71 71 72 74 71 70 68 69 71 74 72 72 72 72 72
66 68 68 72 73 73 73 73 74 74 74 74 74 75 75 75 75 75 75 75 75 75 74 74 74 73 72 72 71 71 73 74 69 69 68 69 73 74 73 73 72 72 72
65 66 67 68 71 73 73 73 73 74 74 74 74 75 75 75 75 74 74 74 74 74 74 75 74 73 73 73 73 74 74 73 72 71 68 70 74 73 72 72 72 72 72
63 64 65 67 70 71 72 74 73 73 74 73 73 74 74 75 75 74 76 76 74 74 74 75 75 74 75 74 74 75 74 72 70 69 70 72 74 73 72 73 73 73 73
63 67 70 70 70 70 70 72 72 72 71 70 72 72 75 74 73 73 74 75 74 74 73 73 73 74 74 75 76 76 75 71 67 68 69 74 75 73 73 74 74 75 75
63 67 69 69 68 68 69 71 71 71 71 69 70 71 74 73 72 72 74 75 74 74 74 73 73 73 72 71 71 73 74 72 66 66 67 74 75 74 73 74 74 76 76
65 67 70 69 69 69 69 70 72 72 71 70 70 72 72 71 72 72 73 72 72 74 71 72 72 72 71 66 70 71 66 66 67 68 70 74 75 72 73 73 73 74 75
65 68 69 66 70 69 70 70 70 71 71 71 71 71 71 70 69 69 71 71 71 70 70 69 71 69 71 67 72 67 64 66 69 70 70 74 75 74 72 73 74 75 75
65 67 67 68 69 68 69 69 69 69 71 69 70 72 71 70 67 68 68 70 70 69 70 70 68 68 70 66 69 67 64 68 69 70 70 75 75 74 73 74 74 75 76
67 68 67 68 67 68 66 67 67 69 70 70 70 71 70 71 70 69 70 69 69 68 68 67 68 67 67 67 65 67 66 63 64 66 70 72 75 75 75 74 74 76 76
64 68 67 67 67 67 66 68 68 68 69 70 70 73 71 69 70 70 69 70 71 68 69 67 66 67 67 64 63 63 64 63 63 65 68 71 73 75 75 75 75 76 77
63 66 68 67 66 66 67 69 70 71 70 69 70 69 68 67 69 67 68 70 70 70 69 68 67 67 66 63 62 64 64 63 64 66 66 71 71 72 75 75 76 77 77
63 64 65 68 66 65 65 69 70 70 70 69 64 67 64 69 69 67 64 66 67 69 69 68 67 67 65 63 64 64 62 64 64 65 64 67 71 72 74 75 76 77 76
62 64 64 66 67 66 68 70 67 67 67 71 68 66 68 70 68 69 67 67 66 71 67 64 62 65 67 65 58 60 63 62 65 67 66 66 69 72 73 73 75 74 76
64 64 65 66 66 70 70 69 67 67 69 69 69 69 71 66 66 65 64 66 68 71 69 64 66 69 69 66 60 64 64 62 64 63 67 66 68 72 71 73 73 74 75
64 66 67 67 69 68 69 69 68 69 68 68 69 69 71 65 66 67 68 71 72 71 68 71 72 69 69 67 65 65 62 62 65 66 66 67 68 69 70 72 72 73 73
64 67 66 68 69 69 67 70 69 68 67 70 72 69 70 69 70 69 68 72 71 71 69 69 71 70 66 62 67 66 62 58 60 66 65 69 66 66 68 71 70 73 73
64 67 69 70 70 69 70 68 67 64 65 68 69 69 70 70 70 70 71 70 70 72 69 68 72 66 62 62 66 68 67 61 58 60 67 68 65 65 64 70 65 71 73
66 69 69 71 71 69 69 70 69 66 68 68 69 69 70 71 71 72 71 71 72 72 72 71 71 72 71 68 68 66 65 65 67 64 62 63 69 67 67 69 69 71 74
70 70 68 67 69 70 70 71 70 66 67 68 68 69 69 70 71 70 71 72 72 72 71 69 72 72 72 71 69 67 67 66 64 63 61 65 66 67 68 68 69 70 73

GFSSE_sfc_dewp_168.txt.gz
Dewpoint
71 73 75 75 75 75 74 74 74 75 75 75 75 74 74 74 76 76 76 76 76 76 76 76 76 75 75 75 76 74 74 75 74 74 74 74 74 74 74 74 73 71 73
71 73 76 75 75 75 74 74 75 75 75 74 75 74 74 74 75 76 76 76 75 76 76 75 75 75 75 76 75 75 75 75 75 75 74 73 73 73 74 74 74 73 73
71 73 73 76 75 74 75 75 75 74 74 75 75 74 74 73 74 76 76 75 75 75 75 76 75 75 75 75 75 74 75 74 75 74 74 71 72 74 74 73 74 74 74
71 72 73 76 75 74 74 74 74 73 75 75 75 75 74 74 75 75 75 75 75 75 75 75 75 75 75 75 75 74 74 74 75 71 69 68 68 73 73 74 74 73 73
70 72 72 75 74 74 74 74 74 74 75 75 75 75 75 75 74 75 74 75 75 76 75 75 75 74 72 72 72 71 71 71 72 71 71 72 71 72 73 73 72 71 71
70 71 73 74 74 72 72 74 75 75 75 75 75 74 74 75 75 75 75 75 75 74 75 75 73 72 72 71 72 72 72 75 72 70 70 72 70 73 71 71 71 72 72
70 71 72 75 74 73 73 74 75 75 75 75 75 75 75 75 74 75 75 75 75 74 74 73 73 73 72 72 72 72 73 75 70 70 69 69 71 74 72 72 72 72 71
69 70 71 73 73 73 74 74 75 74 75 75 75 75 75 75 75 75 75 75 75 74 74 73 73 72 72 71 71 73 75 73 69 69 69 70 73 74 73 73 73 73 73
68 68 68 70 72 73 73 74 74 74 74 74 75 75 75 75 75 75 75 75 74 74 74 73 72 72 72 73 74 75 73 72 70 70 69 71 75 73 73 72 72 72 72
66 66 67 70 71 72 72 74 74 74 74 74 75 75 76 75 74 75 76 76 74 73 74 73 73 74 75 76 76 76 73 73 71 70 69 71 75 73 72 73 73 73 73
65 68 70 70 70 70 71 72 74 74 74 74 74 74 75 74 72 73 74 75 74 73 72 72 73 73 74 73 73 73 74 71 69 70 70 74 75 73 73 74 74 74 74
66 68 69 69 69 70 71 71 71 71 70 70 70 71 74 73 72 73 74 74 74 73 73 72 72 72 72 67 70 71 71 70 70 69 69 75 76 74 74 75 75 75 75
66 67 68 68 68 68 70 70 71 71 70 69 70 71 71 71 71 73 72 73 73 73 72 71 72 72 67 66 70 68 68 62 68 70 70 75 76 74 74 74 74 75 75
65 67 68 68 69 69 70 70 70 70 70 69 71 70 70 70 70 70 71 71 71 71 70 70 70 70 66 68 66 65 67 63 69 70 69 73 75 74 73 73 74 74 74
65 67 67 67 69 68 69 69 69 70 70 69 69 71 70 69 68 68 69 69 70 70 69 70 69 70 70 67 68 67 66 64 69 71 69 71 75 76 74 74 74 75 75
65 66 66 68 68 67 67 67 67 68 69 70 70 70 68 69 69 69 69 69 69 69 69 69 68 69 69 65 67 69 67 66 69 70 70 70 75 75 75 74 74 75 75
65 66 66 67 67 66 66 66 66 67 68 69 70 71 68 69 68 68 68 69 70 70 69 67 68 68 68 67 65 66 66 68 68 69 71 71 73 76 75 75 76 77 76
66 67 67 65 66 65 65 67 68 68 69 69 70 67 68 68 68 68 67 68 68 66 68 68 67 66 67 65 64 68 68 68 66 67 70 72 72 73 75 75 76 77 76
67 67 66 66 66 65 65 68 69 69 70 69 70 68 65 69 69 67 64 66 66 66 68 68 66 66 65 63 66 65 65 64 66 65 66 69 72 73 73 75 77 77 75
67 67 67 67 67 65 65 67 69 68 68 70 65 66 66 69 69 66 65 66 66 65 68 63 63 65 68 65 65 61 62 63 66 66 64 68 71 73 72 73 75 75 76
64 67 67 67 66 66 66 67 66 65 68 68 65 67 68 68 68 67 65 66 66 65 69 68 66 68 66 66 65 64 65 62 63 63 66 69 69 72 72 73 73 74 75
62 64 65 67 66 67 68 68 67 67 68 69 68 67 68 68 65 63 64 65 66 70 70 68 70 69 67 67 65 64 59 57 63 66 66 68 67 70 72 72 73 73 73
62 64 65 66 67 68 68 68 69 69 70 69 68 68 68 67 64 65 65 67 71 71 69 69 70 68 64 66 67 64 60 54 60 63 64 67 66 66 68 70 72 73 73
63 65 66 67 68 67 68 68 67 65 65 67 68 68 69 66 64 69 64 69 70 70 68 68 71 66 63 62 66 67 66 58 57 59 64 66 66 66 65 69 65 71 73
65 67 68 68 68 68 68 68 67 64 65 68 67 68 69 68 69 70 70 70 70 71 70 70 71 70 69 66 66 63 63 63 64 64 61 63 66 67 68 68 69 69 72
68 69 68 70 67 68 68 70 68 66 65 67 68 68 68 69 69 70 70 70 71 71 71 70 70 71 71 69 68 65 65 65 65 63 61 61 63 66 68 68 68 70 73

GFSSE_sfc_dewp_171.txt.gz
Dewpoint
71 73 75 75 75 75 75 75 74 74 74 74 74 74 75 76 76 76 76 75 75 75 75 75 75 74 74 74 74 74 74 73 73 73 73 73 73 73 74 74 74 71 73
71 73 75 76 75 74 74 74 75 75 75 75 74 74 74 75 76 76 76 76 75 75 75 75 75 74 74 74 73 73 73 73 74 73 73 73 73 74 73 73 73 72 73
71 73 73 76 75 74 74 75 75 74 74 75 74 74 74 75 76 76 75 75 75 75 75 75 74 74 73 73 72 73 73 74 73 73 73 72 71 73 73 73 73 73 73
72 72 73 76 75 74 75 74 74 74 75 75 74 74 73 74 75 75 75 75 75 75 75 75 74 74 73 73 73 73 73 73 72 73 69 69 71 73 73 72 73 73 73
71 72 73 75 74 74 73 74 74 75 75 75 75 74 74 75 75 75 75 75 75 75 75 75 75 74 74 74 73 73 73 73 72 70 70 70 70 71 72 72 72 73 73
71 71 73 74 73 74 74 74 74 74 75 75 75 75 75 75 74 74 75 75 75 75 74 73 73 72 72 71 72 72 71 73 73 71 71 72 71 73 72 72 72 71 70
70 71 72 74 73 73 74 74 74 75 74 75 74 75 75 75 75 75 75 74 74 75 74 73 73 72 72 72 71 72 73 73 70 71 70 69 70 73 71 71 71 71 71
70 71 72 74 73 72 73 74 75 75 75 75 74 75 75 74 74 75 75 74 74 73 73 73 73 73 73 71 72 74 74 72 69 69 69 70 73 73 72 72 72 72 72
70 70 71 71 72 73 73 74 74 74 74 75 75 75 75 75 75 75 75 75 73 73 73 73 73 73 73 73 73 74 73 72 69 69 69 71 75 73 73 72 73 73 73
67 68 68 71 71 72 72 74 74 74 74 75 75 75 75 74 74 74 76 75 73 73 74 74 74 74 75 74 75 75 74 73 70 70 69 71 75 73 73 72 72 72 73
66 67 70 70 70 71 71 72 73 74 74 74 74 75 75 74 73 73 74 74 73 73 73 73 73 73 73 72 71 72 74 71 71 70 70 72 74 73 72 73 73 73 74
66 68 69 70 70 70 73 71 71 71 70 71 72 73 73 73 73 73 74 74 73 73 73 72 72 72 73 68 70 70 70 69 71 70 69 72 73 73 73 73 74 74 74
66 68 68 68 69 70 70 70 71 70 68 69 71 71 71 70 71 73 72 73 72 73 72 71 71 72 70 66 68 66 66 62 68 70 70 70 74 74 73 74 73 74 74
66 67 67 68 68 68 71 71 70 69 68 69 71 69 70 70 69 70 71 71 70 71 69 70 70 70 69 66 68 64 66 62 69 70 69 70 72 74 73 73 73 74 73
65 67 66 68 68 68 70 70 70 69 70 70 70 71 70 70 68 68 68 68 69 70 69 69 69 69 70 69 68 68 68 67 69 71 70 70 71 74 74 73 74 74 74
64 66 66 67 68 68 68 68 68 69 70 70 70 70 69 69 69 67 68 69 69 69 68 69 69 69 69 68 67 67 66 69 70 70 71 69 71 75 74 74 74 75 74
64 66 65 67 67 66 67 67 67 67 68 68 70 69 67 68 69 69 68 68 70 68 67 68 68 68 68 68 66 68 68 68 70 69 71 70 70 74 74 75 76 77 75
64 66 66 64 67 66 65 66 66 67 68 69 70 70 68 68 67 67 68 68 66 65 68 67 66 66 66 67 65 68 68 68 67 69 70 70 71 72 74 76 76 76 76
65 66 66 65 66 65 64 66 66 67 68 68 69 69 65 68 68 66 65 66 65 66 69 67 64 66 66 64 66 65 66 65 65 66 68 71 71 72 73 73 76 75 75
66 66 66 65 65 64 64 66 68 68 68 70 68 68 67 68 69 67 64 65 66 65 68 65 62 68 67 64 61 61 63 64 65 65 66 69 71 72 72 72 73 74 73
66 67 66 66 65 64 64 65 66 66 67 67 66 67 66 67 67 67 64 65 65 64 67 68 67 67 64 64 63 63 65 62 62 64 67 69 71 72 71 72 73 73 75
66 66 66 66 66 65 64 66 66 66 67 68 66 66 66 66 67 65 65 64 64 67 69 68 69 68 65 67 64 63 56 56 61 64 66 67 67 70 72 73 73 72 73
65 66 66 66 66 66 66 68 68 68 68 68 66 65 67 67 66 62 64 63 67 70 68 69 69 67 63 66 66 62 58 52 58 61 64 67 64 65 67 70 71 72 73
63 65 65 66 66 67 68 67 67 66 66 67 67 65 68 68 65 64 65 63 70 70 68 68 70 65 62 62 64 64 63 57 53 58 64 65 66 64 64 68 65 70 73
62 64 65 66 66 67 68 68 67 64 65 67 68 67 68 68 66 67 68 64 70 70 69 69 69 65 66 63 63 61 61 62 62 62 60 61 65 66 66 67 68 66 70
64 66 66 67 66 67 67 68 67 65 65 67 67 68 68 68 68 67 70 70 70 70 70 70 70 70 70 68 66 62 63 65 65 63 61 61 62 65 67 68 67 68 70